Date String (YYYY-MM-DD hh:mm:ss) UTC,Instrument flags,Ambient pressure (hPa),Sample flow (lpm),Bypass flow (lpm),Sample temperature (°C),Ambient temperature (°C),ASC tube jacket temperature (°C),LED temperature (°C),Box temperature (°C),Sample RH (%),Span deviation,Mass concentration (μg/m³),Mass concentration (μg/m³),Mass concentration (μg/m³)
DateTimeUTC,F1_M11,P_M11,Q1_M11,Q2_M11,T1_M11,T2_M11,T3_M11,T4_M11,T5_M11,U1_M11,ZSPAN_M11,X2_M11,X0_M11,X1_M11
2022-11-09 23:00:00,,0811.8,5.00,0.00,25.5,24.2,00.0,34.1,27.4,15.1,-001.7,0011.50,0020.56,0010.04
2022-11-09 23:01:00,,0811.7,5.00,0.00,25.5,24.2,00.0,34.2,27.4,15.1,-001.6,0011.47,0020.49,0010.05
2022-11-09 23:02:00,,0811.7,5.00,0.00,25.5,24.2,00.0,34.2,27.4,15.1,-001.6,0011.49,0020.32,0010.07
2022-11-09 23:03:00,,0811.7,4.99,0.00,25.5,24.2,00.0,34.2,27.4,15.1,-001.5,0011.54,0020.48,0010.09
2022-11-09 23:04:00,,0811.7,5.00,0.00,25.5,24.2,00.0,34.2,27.4,15.0,-001.7,0011.57,0020.97,0010.09
2022-11-09 23:05:00,,0811.6,5.02,0.00,25.5,24.2,00.0,34.2,27.4,15.0,-001.7,0011.60,0020.56,0010.10
2022-11-09 23:06:00,,0811.6,5.00,0.00,25.5,24.2,00.0,34.2,27.4,15.0,-001.8,0011.70,0020.28,0010.11
2022-11-09 23:07:00,,0811.7,4.98,0.00,25.5,24.2,00.0,34.2,27.4,15.0,-001.8,0011.76,0020.44,0010.11
2022-11-09 23:08:00,,0811.7,5.00,0.00,25.5,24.2,00.0,34.2,27.4,15.0,-001.6,0011.76,0020.05,0010.11
2022-11-09 23:09:00,,0811.7,5.01,0.00,25.5,24.2,00.0,34.2,27.5,15.0,-001.4,0011.74,0019.96,0010.11
2022-11-09 23:10:00,,0811.6,5.00,0.00,25.5,24.2,00.0,34.2,27.4,15.0,-001.1,0011.80,0019.80,0010.13
2022-11-09 23:11:00,,0811.7,4.98,0.00,25.5,24.2,00.0,34.2,27.5,15.0,-001.1,0011.81,0020.69,0010.14
2022-11-09 23:12:00,,0811.7,5.00,0.00,25.5,24.3,00.0,34.2,27.5,15.0,-001.2,0011.81,0020.92,0010.15
2022-11-09 23:13:00,,0811.7,5.00,0.00,25.6,24.3,00.0,34.2,27.5,14.9,-001.2,0011.82,0021.30,0010.15
2022-11-09 23:14:00,,0811.8,5.01,0.00,25.6,24.3,00.0,34.2,27.5,14.9,-000.9,0011.87,0021.62,0010.17
2022-11-09 23:15:00,,0811.8,5.01,0.00,25.6,24.3,00.0,34.2,27.5,14.9,-000.7,0011.92,0021.72,0010.19
2022-11-09 23:16:00,,0811.7,4.99,0.00,25.6,24.3,00.0,34.3,27.5,14.9,-000.6,0011.93,0022.12,0010.21
2022-11-09 23:17:00,,0811.6,4.99,0.00,25.6,24.3,00.0,34.3,27.5,14.9,-000.5,0011.86,0021.88,0010.21
2022-11-09 23:18:00,,0811.7,5.02,0.00,25.6,24.3,00.0,34.3,27.5,14.9,-000.7,0011.83,0023.15,0010.20
2022-11-09 23:19:00,,0811.8,5.00,0.00,25.6,24.3,00.0,34.3,27.5,14.9,-000.8,0011.78,0023.99,0010.18
2022-11-09 23:20:00,,0811.7,5.00,0.00,25.6,24.3,00.0,34.3,27.5,14.9,-001.0,0011.77,0024.46,0010.15
2022-11-09 23:21:00,,0811.8,4.99,0.00,25.6,24.3,00.0,34.3,27.5,14.9,-001.3,0011.77,0025.09,0010.14
2022-11-09 23:22:00,,0811.9,5.01,0.00,25.6,24.3,00.0,34.3,27.5,14.9,-001.3,0011.75,0025.27,0010.12
2022-11-09 23:23:00,,0811.9,5.00,0.00,25.6,24.3,00.0,34.3,27.5,14.9,-001.5,0011.74,0025.12,0010.10
2022-11-09 23:24:00,,0811.8,5.01,0.00,25.6,24.3,00.0,34.3,27.5,14.9,-001.5,0011.69,0025.89,0010.10
2022-11-09 23:25:00,,0811.9,5.01,0.00,25.6,24.3,00.0,34.3,27.5,14.9,-001.9,0011.67,0027.13,0010.08
2022-11-09 23:26:00,,0811.8,5.01,0.00,25.6,24.3,00.0,34.3,27.5,14.9,-001.9,0011.65,0027.00,0010.07
2022-11-09 23:27:00,,0811.8,4.97,0.00,25.6,24.3,00.0,34.3,27.6,14.9,-001.5,0011.63,0027.10,0010.05
2022-11-09 23:28:00,,0811.8,5.02,0.00,25.6,24.3,00.0,34.3,27.6,14.8,-001.4,0011.67,0027.03,0010.04
2022-11-09 23:29:00,,0811.9,5.01,0.00,25.6,24.3,00.0,34.3,27.6,14.8,-001.3,0011.66,0026.37,0010.05
2022-11-09 23:30:00,,0811.8,4.98,0.00,25.7,24.3,00.0,34.3,27.6,14.8,-001.1,0011.69,0026.20,0010.05
2022-11-09 23:31:00,,0811.9,5.00,0.00,25.7,24.3,00.0,34.3,27.6,14.8,-001.1,0011.69,0028.03,0010.06
2022-11-09 23:32:00,,0811.8,5.02,0.00,25.7,24.4,00.0,34.4,27.6,14.8,-000.9,0011.66,0028.54,0010.06
2022-11-09 23:33:00,,0811.8,5.00,0.00,25.7,24.4,00.0,34.4,27.6,14.8,-000.9,0011.67,0027.52,0010.08
2022-11-09 23:34:00,,0811.9,4.98,0.00,25.7,24.4,00.0,34.4,27.6,14.8,-000.9,0011.70,0028.21,0010.10
2022-11-09 23:35:00,,0811.9,5.00,0.00,25.7,24.4,00.0,34.4,27.6,14.8,-000.8,0011.72,0027.39,0010.11
2022-11-09 23:36:00,,0812.0,5.00,0.00,25.7,24.4,00.0,34.4,27.6,14.8,-000.7,0011.72,0026.44,0010.11
2022-11-09 23:37:00,,0812.1,5.01,0.00,25.7,24.4,00.0,34.4,27.6,14.8,-000.6,0011.70,0026.73,0010.11
2022-11-09 23:38:00,,0812.1,5.00,0.00,25.7,24.4,00.0,34.4,27.6,14.7,-000.9,0011.76,0026.51,0010.12
2022-11-09 23:39:00,,0812.1,4.99,0.00,25.7,24.4,00.0,34.4,27.6,14.8,-001.0,0011.75,0026.72,0010.12
2022-11-09 23:40:00,,0812.1,4.99,0.00,25.7,24.4,00.0,34.4,27.6,14.8,-001.0,0011.75,0026.76,0010.11
2022-11-09 23:41:00,,0812.2,5.00,0.00,25.7,24.4,00.0,34.4,27.7,14.7,-001.0,0011.74,0026.70,0010.12
2022-11-09 23:42:00,,0812.1,5.01,0.00,25.7,24.4,00.0,34.4,27.7,14.7,-001.2,0011.72,0024.50,0010.12
2022-11-09 23:43:00,,0812.1,5.00,0.00,25.7,24.4,00.0,34.4,27.7,14.7,-001.4,0011.74,0023.45,0010.12
2022-11-09 23:44:00,,0812.1,5.00,0.00,25.7,24.4,00.0,34.4,27.7,14.7,-001.3,0011.76,0023.55,0010.10
2022-11-09 23:45:00,,0812.2,4.99,0.00,25.7,24.4,00.0,34.4,27.7,14.7,-001.2,0011.79,0023.84,0010.09
2022-11-09 23:46:00,,0812.2,4.99,0.00,25.8,24.4,00.0,34.4,27.7,14.7,-001.6,0011.82,0024.23,0010.08
2022-11-09 23:47:00,,0812.1,4.99,0.00,25.8,24.4,00.0,34.5,27.7,14.7,-001.7,0011.82,0024.59,0010.07
2022-11-09 23:48:00,,0812.2,5.01,0.00,25.8,24.4,00.0,34.5,27.7,14.7,-001.5,0011.83,0024.63,0010.06
2022-11-09 23:49:00,,0812.2,5.01,0.00,25.8,24.4,00.0,34.5,27.7,14.7,-001.6,0011.79,0024.74,0010.05
2022-11-09 23:50:00,,0812.2,5.01,0.00,25.8,24.4,00.0,34.5,27.7,14.7,-001.6,0011.75,0024.96,0010.05
2022-11-09 23:51:00,,0812.2,4.98,0.00,25.8,24.4,00.0,34.5,27.7,14.6,-001.5,0011.80,0025.70,0010.04
2022-11-09 23:52:00,,0812.1,4.99,0.00,25.8,24.4,00.0,34.5,27.7,14.6,-001.7,0011.80,0025.07,0010.03
2022-11-09 23:53:00,,0812.1,5.00,0.00,25.8,24.4,00.0,34.5,27.7,14.7,-001.7,0011.86,0025.19,0010.02
2022-11-09 23:54:00,,0812.1,5.01,0.00,25.8,24.4,00.0,34.5,27.7,14.7,-001.2,0011.86,0025.70,0010.01
2022-11-09 23:55:00,,0812.1,5.00,0.00,25.8,24.4,00.0,34.5,27.7,14.7,-001.0,0011.86,0026.26,0010.03
2022-11-09 23:56:00,,0812.1,5.00,0.00,25.8,24.4,00.0,34.5,27.7,14.7,-001.0,0011.83,0025.94,0010.03
2022-11-09 23:57:00,,0812.2,5.00,0.00,25.8,24.4,00.0,34.5,27.7,14.7,-000.8,0011.85,0026.26,0010.03
2022-11-09 23:58:00,,0812.2,4.99,0.00,25.8,24.4,00.0,34.5,27.7,14.7,-000.6,0011.85,0026.03,0010.02
2022-11-09 23:59:00,,0812.1,4.99,0.00,25.8,24.4,00.0,34.5,27.7,14.7,-000.7,0011.86,0025.81,0010.02
